2019-246T00:25:52.147,   1, 180,   1,   120,   4,          0,     46.128,  99216.844,    79.179,   -13.721,     0.459,   247.493, 2, 5.486E-04, -1.00,   2,  4.146E-03,  7.701E-05,  1.305E-13,  1.584E-14,  1.965E+02,  2.385E+01, 255
2019-246T00:27:52.148,   1, 180,   1,   120,   4,          0,     46.128,  99216.844,    79.173,   -13.721,     0.459,   246.284, 2, 5.486E-04, -1.00,   2,  4.795E-03,  7.938E-05,  1.458E-13,  1.516E-14,  1.898E+02,  1.973E+01, 255
2019-246T00:29:52.150,   1, 180,   1,   120,   4,          0,     46.128,  99216.844,    79.167,   -13.720,     0.459,   245.075, 2, 5.486E-04, -1.00,   2,  4.816E-03,  7.691E-05,  2.597E-13,  1.615E-14,  3.365E+02,  2.093E+01, 255
2019-246T00:31:52.151,   1, 180,   1,   120,   4,          0,     46.128,  99216.844,    79.161,   -13.719,     0.459,   243.866, 2, 5.486E-04, -1.00,   2,  5.553E-03,  7.960E-05,  2.100E-13,  1.583E-14,  2.360E+02,  1.779E+01, 255
2019-246T00:33:52.153,   1, 180,   1,   120,   4,          0,     46.128,  99216.844,    79.155,   -13.718,     0.459,   242.656, 2, 5.486E-04, -1.00,   2,  5.571E-03,  7.782E-05,  2.418E-13,  1.569E-14,  2.709E+02,  1.758E+01, 255
2019-246T00:35:52.154,   1, 180,   1,   120,   4,          0,     46.128,  99216.844,    79.149,   -13.717,     0.459,   241.447, 2, 5.486E-04, -1.00,   2,  5.733E-03,  7.869E-05,  4.111E-13,  1.664E-14,  4.475E+02,  1.811E+01, 255
2019-246T00:37:52.155,   1, 180,   1,   120,   4,          0,     46.128,  99216.844,    79.143,   -13.716,     0.459,   240.238, 2, 5.486E-04, -1.00,   2,  4.521E-03,  7.529E-05,  1.969E-13,  1.605E-14,  2.719E+02,  2.215E+01, 255
2019-246T00:39:52.157,   1, 180,   1,   120,   4,          0,     46.128,  99216.844,    79.136,   -13.715,     0.459,   239.028, 2, 5.486E-04, -1.00,   2,  4.365E-03,  7.676E-05,  9.479E-14,  1.526E-14,  1.355E+02,  2.182E+01, 255
2019-246T00:41:52.158,   1, 180,   1,   120,   4,          0,     46.128,  99216.844,    79.130,   -13.714,     0.459,   237.819, 2, 5.486E-04, -1.00,   2,  4.726E-03,  7.950E-05,  1.213E-13,  1.501E-14,  1.602E+02,  1.983E+01, 255
2019-246T00:43:52.159,   1, 180,   1,   120,   4,          0,     46.128,  99216.844,    79.124,   -13.713,     0.459,   236.610, 2, 5.486E-04, -1.00,   2,  4.649E-03,  7.853E-05,  8.156E-14,  1.531E-14,  1.095E+02,  2.055E+01, 255
2019-246T01:03:52.173,   1, 180,   1,   120,   4,          0,     46.128,  99216.844,    79.064,   -13.704,     0.459,   224.517, 2, 5.486E-04, -1.00,   2,  4.230E-03,  7.515E-05,  1.587E-13,  1.552E-14,  2.342E+02,  2.290E+01, 255
2019-246T01:05:52.175,   1, 180,   1,   120,   4,          0,     46.128,  99216.844,    79.058,   -13.703,     0.459,   223.308, 2, 5.486E-04, -1.00,   2,  4.721E-03,  7.846E-05,  1.545E-13,  1.588E-14,  2.042E+02,  2.099E+01, 255
2019-246T01:07:52.176,   1, 180,   1,   120,   4,          0,     46.128,  99216.844,    79.052,   -13.702,     0.459,   222.098, 2, 5.486E-04, -1.00,   2,  4.575E-03,  7.599E-05,  2.116E-13,  1.623E-14,  2.887E+02,  2.214E+01, 255
2019-246T01:09:52.178,   1, 180,   1,   120,   4,          0,     46.128,  99216.844,    79.046,   -13.701,     0.459,   220.889, 2, 5.486E-04, -1.00,   2,  4.805E-03,  7.693E-05,  1.856E-13,  1.613E-14,  2.410E+02,  2.096E+01, 255
2019-246T01:11:52.179,   1, 180,   1,   120,   4,          0,     46.128,  99216.844,    79.040,   -13.700,     0.459,   219.680, 2, 5.486E-04, -1.00,   2,  4.470E-03,  7.571E-05,  1.597E-13,  1.582E-14,  2.229E+02,  2.209E+01, 255
2019-246T01:13:52.180,   1, 180,   1,   120,   4,          0,     46.128,  99216.844,    79.033,   -13.699,     0.459,   218.471, 2, 5.486E-04, -1.00,   2,  4.364E-03,  7.532E-05,  2.097E-13,  1.568E-14,  2.999E+02,  2.242E+01, 255
2019-246T01:15:52.182,   1, 180,   1,   120,   4,          0,     46.128,  99216.844,    79.027,   -13.698,     0.459,   217.261, 2, 5.486E-04, -1.00,   2,  4.191E-03,  7.510E-05,  1.472E-13,  1.540E-14,  2.192E+02,  2.294E+01, 255
2019-246T01:17:52.183,   1, 180,   1,   120,   4,          0,     46.128,  99216.844,    79.021,   -13.697,     0.459,   216.052, 2, 5.486E-04, -1.00,   2,  4.655E-03,  7.688E-05,  1.940E-13,  1.604E-14,  2.601E+02,  2.150E+01, 255
2019-246T01:19:52.184,   1, 180,   1,   120,   4,          0,     46.128,  99216.844,    79.015,   -13.696,     0.459,   214.843, 2, 5.486E-04, -1.00,   2,  5.255E-03,  8.191E-05,  1.281E-13,  1.546E-14,  1.521E+02,  1.836E+01, 255
2019-246T01:21:52.186,   1, 180,   1,   120,   4,          0,     46.128,  99216.844,    79.009,   -13.695,     0.459,   213.633, 2, 5.486E-04, -1.00,   2,  4.870E-03,  7.583E-05,  4.032E-13,  1.669E-14,  5.167E+02,  2.139E+01, 255
2019-246T01:23:52.187,   1, 180,   1,   120,   4,          0,     46.128,  99216.844,    79.003,   -13.694,     0.459,   212.424, 2, 5.486E-04, -1.00,   2,  6.050E-03,  7.801E-05,  2.798E-13,  1.597E-14,  2.887E+02,  1.647E+01, 255
2019-246T01:25:52.189,   1, 180,   1,   120,   4,          0,     46.128,  99216.844,    78.997,   -13.693,     0.459,   211.215, 2, 5.486E-04, -1.00,   2,  7.014E-03,  8.080E-05,  4.041E-13,  1.565E-14,  3.596E+02,  1.393E+01, 255
2019-246T01:27:52.190,   1, 180,   1,   120,   4,          0,     46.128,  99216.844,    78.991,   -13.693,     0.459,   210.006, 2, 5.486E-04, -1.00,   2,  7.403E-03,  8.222E-05,  4.057E-13,  1.600E-14,  3.421E+02,  1.349E+01, 255
2019-246T01:29:52.191,   1, 180,   1,   120,   4,          0,     46.128,  99216.844,    78.985,   -13.692,     0.459,   208.796, 2, 5.486E-04, -1.00,   2,  6.735E-03,  7.856E-05,  3.659E-13,  1.591E-14,  3.391E+02,  1.475E+01, 255
2019-246T01:31:52.193,   1, 180,   1,   120,   4,          0,     46.128,  99216.844,    78.979,   -13.691,     0.459,   207.587, 2, 5.486E-04, -1.00,   2,  5.135E-03,  7.436E-05,  3.227E-13,  1.653E-14,  3.922E+02,  2.009E+01, 255
2019-246T01:33:52.194,   1, 180,   1,   120,   4,          0,     46.128,  99216.844,    78.973,   -13.690,     0.459,   206.378, 2, 5.486E-04, -1.00,   2,  3.616E-03,  6.846E-05,  2.574E-13,  1.643E-14,  4.443E+02,  2.836E+01, 255
2019-246T02:25:52.230,   1, 180,   1,   120,   4,          0,     46.128,  99216.844,    78.815,   -13.665,     0.458,   174.936, 2, 5.486E-04, -1.00,   2,  3.323E-03,  6.715E-05,  1.778E-13,  1.547E-14,  3.340E+02,  2.907E+01, 255
2019-246T02:27:52.232,   1, 180,   1,   120,   4,          0,     46.128,  99216.844,    78.808,   -13.664,     0.458,   173.727, 2, 5.486E-04, -1.00,   2,  3.476E-03,  6.634E-05,  1.704E-13,  1.493E-14,  3.060E+02,  2.681E+01, 255
2019-246T02:29:52.233,   1, 180,   1,   120,   4,          0,     46.128,  99216.844,    78.802,   -13.663,     0.458,   172.518, 2, 5.486E-04, -1.00,   2,  3.975E-03,  7.183E-05,  1.844E-13,  1.566E-14,  2.895E+02,  2.459E+01, 255
2019-246T02:31:52.234,   1, 180,   1,   120,   4,          0,     46.128,  99216.844,    78.796,   -13.662,     0.458,   171.308, 2, 5.486E-04, -1.00,   2,  4.117E-03,  7.194E-05,  2.113E-13,  1.510E-14,  3.204E+02,  2.289E+01, 255
2019-246T02:33:52.236,   1, 180,   1,   120,   4,          0,     46.128,  99216.844,    78.790,   -13.662,     0.458,   170.099, 2, 5.486E-04, -1.00,   2,  4.468E-03,  7.564E-05,  2.088E-13,  1.573E-14,  2.917E+02,  2.198E+01, 255
2019-246T02:35:52.237,   1, 180,   1,   120,   4,          0,     46.128,  99216.844,    78.784,   -13.661,     0.458,   168.890, 2, 5.486E-04, -1.00,   2,  4.530E-03,  7.442E-05,  2.724E-13,  1.596E-14,  3.753E+02,  2.199E+01, 255
2019-246T02:37:52.239,   1, 180,   1,   120,   4,          0,     46.128,  99216.844,    78.778,   -13.660,     0.458,   167.681, 2, 5.486E-04, -1.00,   2,  4.513E-03,  7.491E-05,  2.848E-13,  1.589E-14,  3.939E+02,  2.198E+01, 255
2019-246T02:39:52.240,   1, 180,   1,   120,   4,          0,     46.128,  99216.844,    78.772,   -13.659,     0.458,   166.471, 2, 5.486E-04, -1.00,   2,  4.739E-03,  7.691E-05,  1.288E-13,  1.514E-14,  1.697E+02,  1.994E+01, 255
2019-246T02:41:52.241,   1, 180,   1,   120,   4,          0,     46.128,  99216.844,    78.766,   -13.658,     0.458,   165.262, 2, 5.486E-04, -1.00,   2,  4.832E-03,  7.800E-05,  2.106E-13,  1.560E-14,  2.720E+02,  2.015E+01, 255
2019-246T02:43:52.243,   1, 180,   1,   120,   4,          0,     46.128,  99216.844,    78.760,   -13.657,     0.458,   164.053, 2, 5.486E-04, -1.00,   2,  4.560E-03,  7.573E-05,  1.750E-13,  1.545E-14,  2.396E+02,  2.115E+01, 255
2019-246T02:45:52.244,   1, 180,   1,   120,   4,          0,     46.128,  99216.844,    78.754,   -13.656,     0.458,   162.843, 2, 5.486E-04, -1.00,   2,  4.462E-03,  7.611E-05,  1.590E-13,  1.549E-14,  2.224E+02,  2.167E+01, 255
2019-246T02:47:52.245,   1, 180,   1,   120,   4,          0,     46.128,  99216.844,    78.748,   -13.655,     0.458,   161.634, 2, 5.486E-04, -1.00,   2,  4.753E-03,  7.633E-05,  2.280E-13,  1.558E-14,  2.994E+02,  2.046E+01, 255
2019-246T02:49:52.247,   1, 180,   1,   120,   4,          0,     46.128,  99216.844,    78.741,   -13.654,     0.458,   160.425, 2, 5.486E-04, -1.00,   2,  4.499E-03,  7.529E-05,  1.682E-13,  1.546E-14,  2.334E+02,  2.144E+01, 255
2019-246T02:51:52.248,   1, 180,   1,   120,   4,          0,     46.128,  99216.844,    78.735,   -13.653,     0.458,   159.216, 2, 5.486E-04, -1.00,   2,  4.619E-03,  7.399E-05,  1.938E-13,  1.509E-14,  2.619E+02,  2.039E+01, 255
2019-246T02:53:52.250,   1, 180,   1,   120,   4,          0,     46.128,  99216.844,    78.729,   -13.652,     0.458,   158.006, 2, 5.486E-04, -1.00,   2,  4.636E-03,  7.397E-05,  2.274E-13,  1.550E-14,  3.062E+02,  2.087E+01, 255
2019-246T02:55:52.251,   1, 180,   1,   120,   4,          0,     46.128,  99216.844,    78.723,   -13.651,     0.458,   156.797, 2, 5.486E-04, -1.00,   2,  4.408E-03,  7.463E-05,  8.931E-14,  1.528E-14,  1.265E+02,  2.164E+01, 255
2019-246T02:57:52.252,   1, 180,   1,   120,   4,          0,     46.128,  99216.844,    78.717,   -13.650,     0.458,   155.588, 2, 5.486E-04, -1.00,   2,  4.904E-03,  7.696E-05,  2.430E-13,  1.537E-14,  3.092E+02,  1.956E+01, 255
2019-246T02:59:52.254,   1, 180,   1,   120,   4,          0,     46.128,  99216.844,    78.711,   -13.649,     0.458,   154.378, 2, 5.486E-04, -1.00,   2,  4.673E-03,  7.709E-05,  2.295E-13,  1.543E-14,  3.066E+02,  2.060E+01, 255
2019-246T03:01:52.255,   1, 180,   1,   120,   4,          0,     46.128,  99216.844,    78.705,   -13.648,     0.458,   153.169, 2, 5.486E-04, -1.00,   2,  4.493E-03,  7.701E-05,  1.121E-13,  1.504E-14,  1.558E+02,  2.090E+01, 255
2019-246T03:03:52.257,   1, 180,   1,   120,   4,          0,     46.128,  99216.844,    78.699,   -13.647,     0.458,   151.960, 2, 5.486E-04, -1.00,   2,  4.443E-03,  7.715E-05,  2.028E-13,  1.605E-14,  2.848E+02,  2.254E+01, 255
2019-246T03:05:52.258,   1, 180,   1,   120,   4,          0,     46.128,  99216.844,    78.693,   -13.646,     0.458,   150.751, 2, 5.486E-04, -1.00,   2,  4.943E-03,  7.989E-05,  8.166E-14,  1.458E-14,  1.031E+02,  1.841E+01, 255
2019-246T03:07:52.259,   1, 180,   1,   120,   4,          0,     46.128,  99216.844,    78.686,   -13.645,     0.458,   149.541, 2, 5.486E-04, -1.00,   2,  4.961E-03,  8.008E-05,  2.045E-13,  1.507E-14,  2.573E+02,  1.896E+01, 255
2019-246T03:09:52.261,   1, 180,   1,   120,   4,          0,     46.128,  99216.844,    78.680,   -13.645,     0.458,   148.332, 2, 5.486E-04, -1.00,   2,  4.669E-03,  7.956E-05,  1.776E-13,  1.538E-14,  2.374E+02,  2.056E+01, 255
2019-246T03:11:52.262,   1, 180,   1,   120,   4,          0,     46.128,  99216.844,    78.674,   -13.644,     0.458,   147.123, 2, 5.486E-04, -1.00,   2,  5.191E-03,  8.071E-05,  1.474E-13,  1.520E-14,  1.772E+02,  1.828E+01, 255
2019-246T03:13:52.263,   1, 180,   1,   120,   4,          0,     46.128,  99216.844,    78.668,   -13.643,     0.458,   145.913, 2, 5.486E-04, -1.00,   2,  5.140E-03,  7.996E-05,  2.340E-13,  1.555E-14,  2.841E+02,  1.888E+01, 255
2019-246T03:15:52.265,   1, 180,   1,   120,   4,          0,     46.128,  99216.844,    78.662,   -13.642,     0.458,   144.704, 2, 5.486E-04, -1.00,   2,  5.041E-03,  7.914E-05,  1.237E-13,  1.484E-14,  1.532E+02,  1.837E+01, 255
2019-246T03:17:52.266,   1, 180,   1,   120,   4,          0,     46.128,  99216.844,    78.656,   -13.641,     0.458,   143.495, 2, 5.486E-04, -1.00,   2,  4.910E-03,  7.793E-05,  2.561E-13,  1.588E-14,  3.256E+02,  2.019E+01, 255
2019-246T03:19:52.268,   1, 180,   1,   120,   4,          0,     46.128,  99216.844,    78.650,   -13.640,     0.458,   142.286, 2, 5.486E-04, -1.00,   2,  4.257E-03,  7.477E-05,  1.626E-13,  1.579E-14,  2.384E+02,  2.315E+01, 255
2019-246T03:21:52.269,   1, 180,   1,   120,   4,          0,     46.128,  99216.844,    78.644,   -13.639,     0.458,   141.076, 2, 5.486E-04, -1.00,   2,  3.781E-03,  7.188E-05,  1.263E-13,  1.537E-14,  2.085E+02,  2.537E+01, 255
2019-246T03:25:52.272,   1, 180,   1,   120,   4,          0,     46.128,  99216.844,    78.631,   -13.637,     0.458,   138.658, 2, 5.486E-04, -1.00,   2,  3.289E-03,  6.854E-05,  1.017E-13,  1.499E-14,  1.930E+02,  2.845E+01, 255
2019-246T03:27:52.273,   1, 180,   1,   120,   4,          0,     46.128,  99216.844,    78.625,   -13.636,     0.458,   137.448, 2, 5.486E-04, -1.00,   2,  3.915E-03,  7.164E-05,  2.194E-13,  1.576E-14,  3.498E+02,  2.513E+01, 255
2019-246T03:29:52.275,   1, 180,   1,   120,   4,          0,     46.128,  99216.844,    78.619,   -13.635,     0.458,   136.239, 2, 5.486E-04, -1.00,   2,  4.246E-03,  7.403E-05,  1.846E-13,  1.584E-14,  2.714E+02,  2.328E+01, 255
2019-246T03:51:52.290,   1, 180,   1,   120,   4,          0,     46.128,  99216.844,    78.552,   -13.625,     0.457,   122.937, 2, 5.486E-04, -1.00,   2,  3.593E-03,  6.750E-05,  2.123E-13,  1.590E-14,  3.687E+02,  2.761E+01, 255
2019-246T03:53:52.291,   1, 180,   1,   120,   4,          0,     46.128,  99216.844,    78.546,   -13.624,     0.457,   121.728, 2, 5.486E-04, -1.00,   2,  5.457E-03,  7.331E-05,  3.105E-13,  1.498E-14,  3.551E+02,  1.713E+01, 255
2019-246T03:55:52.293,   1, 180,   1,   120,   4,          0,     46.128,  99216.844,    78.540,   -13.623,     0.457,   120.518, 2, 5.486E-04, -1.00,   2,  5.290E-03,  7.292E-05,  3.045E-13,  1.536E-14,  3.594E+02,  1.812E+01, 255
2019-246T03:57:52.294,   1, 180,   1,   120,   4,          0,     46.128,  99216.844,    78.533,   -13.622,     0.457,   119.309, 2, 5.486E-04, -1.00,   2,  5.725E-03,  7.570E-05,  2.868E-13,  1.549E-14,  3.127E+02,  1.689E+01, 255
2019-246T03:59:52.295,   1, 180,   1,   120,   4,          0,     46.128,  99216.844,    78.527,   -13.621,     0.457,   118.100, 2, 5.486E-04, -1.00,   2,  5.285E-03,  7.231E-05,  2.154E-13,  1.496E-14,  2.544E+02,  1.767E+01, 255
2019-246T04:01:52.297,   1, 180,   1,   120,   4,          0,     46.128,  99216.844,    78.521,   -13.620,     0.457,   116.890, 2, 5.486E-04, -1.00,   2,  5.767E-03,  7.315E-05,  2.624E-13,  1.508E-14,  2.839E+02,  1.632E+01, 255
2019-246T04:03:52.298,   1, 180,   1,   120,   4,          0,     46.128,  99216.844,    78.515,   -13.619,     0.457,   115.681, 2, 5.486E-04, -1.00,   2,  6.633E-03,  7.861E-05,  2.738E-13,  1.551E-14,  2.576E+02,  1.459E+01, 255
2019-246T04:05:52.300,   1, 180,   1,   120,   4,          0,     46.128,  99216.844,    78.509,   -13.618,     0.457,   114.472, 2, 5.486E-04, -1.00,   2,  6.811E-03,  7.756E-05,  3.510E-13,  1.502E-14,  3.216E+02,  1.377E+01, 255
2019-246T04:07:52.301,   1, 180,   1,   120,   4,          0,     46.128,  99216.844,    78.503,   -13.617,     0.457,   113.263, 2, 5.486E-04, -1.00,   2,  6.597E-03,  7.674E-05,  3.105E-13,  1.497E-14,  2.938E+02,  1.417E+01, 255
2019-246T04:09:52.302,   1, 180,   1,   120,   4,          0,     46.128,  99216.844,    78.497,   -13.616,     0.457,   112.053, 2, 5.486E-04, -1.00,   2,  6.510E-03,  7.616E-05,  3.070E-13,  1.557E-14,  2.943E+02,  1.492E+01, 255
2019-246T04:11:52.304,   1, 180,   1,   120,   4,          0,     46.128,  99216.844,    78.491,   -13.615,     0.457,   110.844, 2, 5.486E-04, -1.00,   2,  6.762E-03,  8.009E-05,  2.912E-13,  1.484E-14,  2.687E+02,  1.369E+01, 255
2019-246T04:13:52.305,   1, 180,   1,   120,   4,          0,     46.128,  99216.844,    78.484,   -13.614,     0.457,   109.635, 2, 5.486E-04, -1.00,   2,  6.453E-03,  7.860E-05,  3.304E-13,  1.474E-14,  3.196E+02,  1.426E+01, 255
2019-246T04:15:52.306,   1, 180,   1,   120,   4,          0,     46.128,  99216.844,    78.478,   -13.613,     0.457,   108.425, 2, 5.486E-04, -1.00,   2,  6.307E-03,  7.569E-05,  4.117E-13,  1.551E-14,  4.074E+02,  1.535E+01, 255
2019-246T04:17:52.308,   1, 180,   1,   120,   4,          0,     46.128,  99216.844,    78.472,   -13.612,     0.457,   107.216, 2, 5.486E-04, -1.00,   2,  6.277E-03,  7.553E-05,  3.596E-13,  1.512E-14,  3.576E+02,  1.503E+01, 255
2019-246T04:19:52.309,   1, 180,   1,   120,   4,          0,     46.128,  99216.844,    78.466,   -13.611,     0.457,   106.007, 2, 5.486E-04, -1.00,   2,  6.823E-03,  7.915E-05,  2.914E-13,  1.510E-14,  2.665E+02,  1.381E+01, 255
2019-246T04:21:52.311,   1, 180,   1,   120,   4,          0,     46.128,  99216.844,    78.460,   -13.610,     0.457,   104.798, 2, 5.486E-04, -1.00,   2,  6.961E-03,  7.791E-05,  5.352E-13,  1.607E-14,  4.799E+02,  1.441E+01, 255
2019-246T04:23:52.312,   1, 180,   1,   120,   4,          0,     46.128,  99216.844,    78.454,   -13.610,     0.457,   103.588, 2, 5.486E-04, -1.00,   2,  6.910E-03,  7.639E-05,  4.624E-13,  1.578E-14,  4.176E+02,  1.425E+01, 255
2019-246T04:25:52.314,   1, 180,   1,   120,   4,          0,     46.128,  99216.844,    78.448,   -13.609,     0.457,   102.379, 2, 5.486E-04, -1.00,   2,  7.082E-03,  7.584E-05,  5.095E-13,  1.535E-14,  4.490E+02,  1.353E+01, 255
2019-246T04:27:52.315,   1, 180,   1,   120,   4,          0,     46.128,  99216.844,    78.441,   -13.608,     0.457,   101.170, 2, 5.486E-04, -1.00,   2,  6.775E-03,  7.764E-05,  4.027E-13,  1.566E-14,  3.709E+02,  1.443E+01, 255
2019-246T04:29:52.316,   1, 180,   1,   120,   4,          0,     46.128,  99216.844,    78.435,   -13.607,     0.457,    99.960, 2, 5.486E-04, -1.00,   2,  6.726E-03,  7.890E-05,  3.604E-13,  1.567E-14,  3.345E+02,  1.454E+01, 255
2019-246T04:31:52.318,   1, 180,   1,   120,   4,          0,     46.128,  99216.844,    78.429,   -13.606,     0.457,    98.751, 2, 5.486E-04, -1.00,   2,  6.970E-03,  7.904E-05,  3.827E-13,  1.522E-14,  3.426E+02,  1.363E+01, 255
2019-246T04:33:52.319,   1, 180,   1,   120,   4,          0,     46.128,  99216.844,    78.423,   -13.605,     0.457,    97.542, 2, 5.486E-04, -1.00,   2,  6.500E-03,  7.706E-05,  3.200E-13,  1.533E-14,  3.072E+02,  1.472E+01, 255
2019-246T04:35:52.320,   1, 180,   1,   120,   4,          0,     46.128,  99216.844,    78.417,   -13.604,     0.457,    96.333, 2, 5.486E-04, -1.00,   2,  6.362E-03,  7.734E-05,  3.441E-13,  1.559E-14,  3.376E+02,  1.529E+01, 255
2019-246T04:37:52.322,   1, 180,   1,   120,   4,          0,     46.128,  99216.844,    78.411,   -13.603,     0.457,    95.123, 2, 5.486E-04, -1.00,   2,  6.702E-03,  7.837E-05,  3.020E-13,  1.434E-14,  2.813E+02,  1.335E+01, 255
2019-246T04:39:52.323,   1, 180,   1,   120,   4,          0,     46.128,  99216.844,    78.405,   -13.602,     0.457,    93.914, 2, 5.486E-04, -1.00,   2,  6.303E-03,  7.566E-05,  4.246E-13,  1.593E-14,  4.205E+02,  1.578E+01, 255
2019-246T04:41:52.325,   1, 180,   1,   120,   4,          0,     46.128,  99216.844,    78.398,   -13.601,     0.457,    92.705, 2, 5.486E-04, -1.00,   2,  5.845E-03,  7.609E-05,  2.652E-13,  1.481E-14,  2.832E+02,  1.581E+01, 255
2019-246T04:43:52.326,   1, 180,   1,   120,   4,          0,     46.128,  99216.844,    78.392,   -13.600,     0.457,    91.495, 2, 5.486E-04, -1.00,   2,  5.641E-03,  7.642E-05,  2.590E-13,  1.509E-14,  2.865E+02,  1.670E+01, 255
2019-246T04:45:52.327,   1, 180,   1,   120,   4,          0,     46.128,  99216.844,    78.386,   -13.599,     0.457,    90.286, 2, 5.486E-04, -1.00,   2,  5.722E-03,  7.613E-05,  3.416E-13,  1.550E-14,  3.726E+02,  1.690E+01, 255
2019-246T04:47:52.329,   1, 180,   1,   120,   4,          0,     46.128,  99216.844,    78.380,   -13.598,     0.457,    89.077, 2, 5.486E-04, -1.00,   2,  5.665E-03,  7.623E-05,  3.658E-13,  1.571E-14,  4.030E+02,  1.731E+01, 255
2019-246T04:49:52.330,   1, 180,   1,   120,   4,          0,     46.128,  99216.844,    78.374,   -13.597,     0.457,    87.868, 2, 5.486E-04, -1.00,   2,  5.105E-03,  7.551E-05,  2.965E-13,  1.562E-14,  3.625E+02,  1.910E+01, 255
2019-246T04:51:52.332,   1, 180,   1,   120,   4,          0,     46.128,  99216.844,    78.368,   -13.596,     0.457,    86.658, 2, 5.486E-04, -1.00,   2,  3.809E-03,  7.116E-05,  2.652E-13,  1.598E-14,  4.346E+02,  2.619E+01, 255
2019-246T04:53:52.333,   1, 180,   1,   120,   4,          0,     46.128,  99216.844,    78.362,   -13.595,     0.457,    85.449, 2, 5.486E-04, -1.00,   2,  3.961E-03,  7.130E-05,  1.841E-13,  1.457E-14,  2.902E+02,  2.296E+01, 255
2019-246T04:57:52.336,   1, 180,   1,   120,   4,          0,     46.128,  99216.844,    78.349,   -13.593,     0.457,    83.030, 2, 5.486E-04, -1.00,   2,  3.679E-03,  6.899E-05,  2.346E-13,  1.585E-14,  3.979E+02,  2.689E+01, 255
2019-246T04:59:52.337,   1, 180,   1,   120,   4,          0,     46.128,  99216.844,    78.343,   -13.592,     0.457,    81.821, 2, 5.486E-04, -1.00,   2,  3.828E-03,  6.998E-05,  2.701E-13,  1.582E-14,  4.404E+02,  2.579E+01, 255
2019-246T05:01:52.339,   1, 180,   1,   120,   4,          0,     46.128,  99216.844,    78.337,   -13.591,     0.457,    80.612, 2, 5.486E-04, -1.00,   2,  4.118E-03,  6.921E-05,  3.038E-13,  1.592E-14,  4.604E+02,  2.413E+01, 255
2019-246T05:03:52.340,   1, 180,   1,   120,   4,          0,     46.128,  99216.844,    78.331,   -13.591,     0.457,    79.403, 2, 5.486E-04, -1.00,   2,  4.423E-03,  7.336E-05,  1.129E-13,  1.479E-14,  1.593E+02,  2.087E+01, 255
2019-246T05:05:52.341,   1, 180,   1,   120,   4,          0,     46.128,  99216.844,    78.325,   -13.590,     0.457,    78.193, 2, 5.486E-04, -1.00,   2,  4.881E-03,  7.754E-05,  1.384E-13,  1.475E-14,  1.769E+02,  1.887E+01, 255
2019-246T05:07:52.343,   1, 180,   1,   120,   4,          0,     46.128,  99216.844,    78.318,   -13.589,     0.456,    76.984, 2, 5.486E-04, -1.00,   2,  3.867E-03,  7.136E-05,  1.757E-13,  1.545E-14,  2.835E+02,  2.493E+01, 255
2019-246T05:09:52.344,   1, 180,   1,   120,   4,          0,     46.128,  99216.844,    78.312,   -13.588,     0.456,    75.775, 2, 5.486E-04, -1.00,   2,  3.927E-03,  7.351E-05,  2.256E-13,  1.563E-14,  3.586E+02,  2.484E+01, 255
2019-246T05:11:52.345,   1, 180,   1,   120,   4,          0,     46.128,  99216.844,    78.306,   -13.587,     0.456,    74.565, 2, 5.486E-04, -1.00,   2,  3.619E-03,  6.961E-05,  2.225E-13,  1.540E-14,  3.837E+02,  2.656E+01, 255
2019-246T05:41:52.366,   1, 180,   1,   120,   4,          0,     46.128,  99216.844,    78.214,   -13.572,     0.456,    56.426, 2, 5.486E-04, -1.00,   2,  4.171E-03,  7.632E-05,  1.507E-13,  1.555E-14,  2.255E+02,  2.327E+01, 255
2019-246T05:43:52.368,   1, 180,   1,   120,   4,          0,     46.128,  99216.844,    78.207,   -13.571,     0.456,    55.217, 2, 5.486E-04, -1.00,   2,  5.103E-03,  8.083E-05,  1.863E-13,  1.564E-14,  2.279E+02,  1.912E+01, 255
2019-246T05:45:52.369,   1, 180,   1,   120,   4,          0,     46.128,  99216.844,    78.201,   -13.570,     0.456,    54.007, 2, 5.486E-04, -1.00,   2,  4.858E-03,  7.561E-05,  2.177E-13,  1.644E-14,  2.797E+02,  2.111E+01, 255
2019-246T05:47:52.370,   1, 180,   1,   120,   4,          0,     46.128,  99216.844,    78.195,   -13.570,     0.456,    52.798, 2, 5.486E-04, -1.00,   2,  4.911E-03,  8.037E-05,  7.778E-14,  1.559E-14,  9.886E+01,  1.982E+01, 255
2019-246T05:49:52.372,   1, 180,   1,   120,   4,          0,     46.128,  99216.844,    78.189,   -13.569,     0.456,    51.589, 2, 5.486E-04, -1.00,   2,  4.660E-03,  7.719E-05,  2.081E-13,  1.597E-14,  2.788E+02,  2.139E+01, 255